Home   Weather   Larvik   Past weeks

Flag for Norway Past Weather in Larvik, Norway — Yesterday and Last 2 Weeks

Now
39 °F

Scattered clouds.


Feels Like: 33 °F
Forecast: 35 / 42 °F
Wind: 9 mph from North

Location: Torp

Current Time: Apr 27, 2017 at 11:26:04 am

Latest Report: Apr 27, 2017 at 10:50 am


Visibility: N/A

Pressure: 29.74 "Hg

Humidity: 61%

Dew Point: 27 °F

Location of LarvikLocation

Past Weather in Larvik — Graph

°F

Larvik Temperature Yesterday

Maximum temperature yesterday: 48 °F (at 2:20 pm)
Minimum temperature yesterday: 34 °F (at 4:50 am)
Average temperature yesterday: 40 °F

High & Low Weather Summary for the Past Weeks

 TemperatureHumidityPressure
High55 °F (Apr 21, 11:50 am)100% (Apr 12, 4:20 pm)30.54 "Hg (Apr 12, 4:20 pm)
Low27 °F (Apr 16, 2:50 am)22% (Apr 22, 1:20 pm)29.27 "Hg (Apr 24, 10:50 am)
Average39 °F70%29.84 "Hg
* Reported Apr 12 9:20 am — Apr 27 9:50 am, Larvik, Weather by CustomWeather, © 2017

Note: Actual official high and low records may vary slightly from our data, if they occured in-between our weather recording intervals... More about our weather records

Advertising

Larvik Weather History for the Previous 24 Hours

Scroll right to see more
 ConditionsComfort  
Time TempWeatherWind HumidityBarometerVisibility
9:50 am
Thu, Apr 27
37 °FSunny.7 mph65%29.74 "Hg10 mi
9:20 am37 °FSunny.7 mph70%29.74 "Hg10 mi
8:50 am37 °FSunny.6 mph65%29.71 "Hg10 mi
8:20 am36 °FSunny.7 mph70%29.71 "Hg10 mi
7:50 am36 °FSunny.6 mph70%29.71 "Hg10 mi
7:20 am34 °FSunny.3 mph81%29.71 "Hg10 mi
6:50 am32 °FSunny.5 mph80%29.71 "Hg10 mi
6:20 am30 °FSunny.5 mph86%29.71 "Hg10 mi
5:50 am28 °FSunny.2 mph93%29.71 "Hg10 mi
5:20 am28 °FChilly.2 mph93%29.71 "HgN/A
4:50 am28 °FChilly.3 mph100%29.71 "HgN/A
4:20 am30 °FChilly.No wind86%29.71 "HgN/A
3:20 am32 °FChilly.2 mph69%29.74 "HgN/A
2:50 am32 °FChilly.2 mph69%29.74 "HgN/A
2:20 am32 °FChilly.2 mph69%29.74 "HgN/A
1:50 am36 °FChilly.5 mph60%29.74 "HgN/A
1:20 am36 °FChilly.5 mph65%29.74 "HgN/A
12:50 am36 °FChilly.3 mph65%29.74 "HgN/A
12:20 am36 °FChilly.2 mph70%29.74 "HgN/A
11:50 pm
Wed, Apr 26
36 °FChilly.6 mph70%29.74 "HgN/A
11:20 pm36 °FChilly.5 mph70%29.77 "HgN/A
10:50 pm37 °FPassing clouds.6 mph65%29.77 "HgN/A
10:20 pm37 °FClear.5 mph65%29.77 "Hg10 mi
9:50 pm39 °FClear.5 mph61%29.77 "Hg10 mi
9:20 pm39 °FClear.5 mph61%29.77 "Hg10 mi
8:50 pm41 °FSunny.5 mph57%29.77 "Hg10 mi
7:50 pm43 °FPassing clouds.5 mph53%29.77 "HgN/A
7:20 pm45 °FScattered showers. Passing clouds.9 mph49%29.77 "HgN/A
6:50 pm45 °FScattered showers. Passing clouds.8 mph49%29.77 "HgN/A
6:20 pm43 °FScattered showers. Passing clouds.13 mph53%29.77 "HgN/A
5:50 pm43 °FSprinkles. Passing clouds.13 mph49%29.77 "HgN/A
5:20 pm45 °FScattered clouds.12 mph46%29.77 "HgN/A
4:50 pm46 °FPassing clouds.12 mph43%29.77 "HgN/A
4:20 pm45 °FScattered clouds.12 mph39%29.77 "HgN/A
3:50 pm45 °FScattered clouds.13 mph53%29.77 "HgN/A
3:20 pm45 °FScattered clouds.14 mph49%29.77 "HgN/A
2:50 pm45 °FScattered clouds.8 mph46%29.77 "HgN/A
2:20 pm48 °FSunny.6 mph27%29.77 "Hg10 mi
1:50 pm46 °FPassing clouds.8 mph29%29.77 "HgN/A
1:20 pm46 °FPassing clouds.8 mph27%29.77 "HgN/A
12:50 pm46 °FPassing clouds.9 mph32%29.77 "HgN/A
12:20 pm45 °FPassing clouds.9 mph34%29.77 "HgN/A
11:50 am45 °FPassing clouds.6 mph37%29.77 "HgN/A
11:20 am45 °FPassing clouds.8 mph37%29.77 "HgN/A
Weather by CustomWeather, © 2017

See weather overviewHow to use our weather pages